Bogalusa, LA

1:57 AM CDT on April 23, 2017 (GMT -0500)
Carr Memorial

Weather History for KBXA - June, 2013

Change the Weather History Date:

Sunday, June 30, 2013

  Actual Average Record
Temperature  
Mean Temperature 80 °F -  
Max Temperature 92 °F 91 °F 94 °F (2016)
Min Temperature 68 °F 70 °F 68 °F (2013)
Cooling Degree Days 15    
Growing Degree Days 30 (Base 50)    
Moisture  
Dew Point 67 °F    
Average Humidity 67    
Maximum Humidity 91    
Minimum Humidity 35    
Precipitation  
Precipitation 0.01 in - - ()
Sea Level Pressure  
Sea Level Pressure 29.77 in    
Wind  
Wind Speed 2 mph (NW)    
Max Wind Speed 10 mph    
Max Gust Speed 16 mph    
Visibility 10 miles    
Events      
Averages and records for this station are not official NWS values.
T = Trace of Precipitation, MM = Missing Value Source: NWS Daily Summary

Daily Weather History Graph

Daily Weather History Graph

Search for Another Location

Airport or City:

Trip Planner

Search our weather history database for the weather conditions in past years. The results will help you decide how hot, cold, wet, or windy it might be!

Date:

Astronomy

Jun. 30, 2013 Rise Set
Actual Time 5:59 AM CDT 8:06 PM CDT
Civil Twilight 5:31 AM CDT 8:34 PM CDT
Nautical Twilight 4:58 AM CDT 9:07 PM CDT
Astronomical Twilight 4:22 AM CDT 9:44 PM CDT
Moon 12:38 AM CDT (6/30) 1:38 PM CDT (6/30)
Length of Visible Light 15h 02m
Length of Day
14h 06m
Last Quarter, 45% of the Moon is Illuminated
Jun 30
Last Quarter
Jul 8
New
Jul 15
First Quarter
Jul 22
Full
Jul 29
Last Quarter

Hourly Weather History & Observations

Time (CDT) Temp. Heat Index Dew Point Humidity Pressure Visibility Wind Dir Wind Speed Gust Speed Precip Events Conditions
12:15 AM 73.4 °F - 69.8 °F 88% 29.77 in 10.0 mi Calm Calm - N/A   Clear
12:35 AM 74.1 °F - 69.8 °F 86% 29.77 in 10.0 mi Calm Calm - N/A   Clear
12:55 AM 73.6 °F - 70.0 °F 88% 29.77 in 10.0 mi Calm Calm - N/A   Clear
1:15 AM 73.4 °F - 69.8 °F 88% 29.77 in 10.0 mi Calm Calm - N/A   Clear
1:35 AM 72.7 °F - 69.3 °F 89% 29.76 in 10.0 mi Calm Calm - N/A   Clear
1:55 AM 72.9 °F - 69.3 °F 88% 29.76 in 10.0 mi Calm Calm - N/A   Clear
2:15 AM 72.7 °F - 69.1 °F 88% 29.76 in 10.0 mi Calm Calm - N/A   Clear
2:35 AM 72.3 °F - 68.7 °F 88% 29.75 in 10.0 mi Calm Calm - N/A   Clear
2:55 AM 72.3 °F - 68.2 °F 87% 29.74 in 10.0 mi Calm Calm - N/A   Clear
3:15 AM 71.8 °F - 68.0 °F 88% 29.74 in 10.0 mi Calm Calm - N/A   Clear
3:35 AM 71.8 °F - 68.0 °F 88% 29.74 in 10.0 mi Calm Calm - N/A   Clear
3:55 AM 70.5 °F - 67.1 °F 89% 29.74 in 7.0 mi Calm Calm - N/A   Clear
4:15 AM 70.9 °F - 68.0 °F 91% 29.75 in 10.0 mi North - - N/A   Clear
4:35 AM 70.7 °F - 67.3 °F 89% 29.75 in 10.0 mi Calm Calm - N/A   Clear
4:55 AM 69.8 °F - 66.9 °F 91% 29.75 in 7.0 mi North - - N/A   Clear
5:15 AM 69.8 °F - 66.9 °F 91% 29.76 in 10.0 mi North - - N/A   Clear
5:35 AM 69.1 °F - 66.2 °F 91% 29.76 in 7.0 mi North - - 0.01 in   Clear
5:55 AM 69.1 °F - 66.2 °F 91% 29.76 in 10.0 mi Calm Calm - 0.01 in   Clear
6:15 AM 68.9 °F - 66.0 °F 90% 29.76 in 10.0 mi Calm Calm - N/A   Clear
6:35 AM 69.8 °F - 66.9 °F 91% 29.77 in 10.0 mi Calm Calm - N/A   Clear
6:55 AM 70.3 °F - 67.1 °F 89% 29.77 in 10.0 mi Calm Calm - N/A   Clear
7:15 AM 71.6 °F - 67.5 °F 87% 29.77 in 10.0 mi Calm Calm - N/A   Clear
7:35 AM 73.2 °F - 67.8 °F 83% 29.78 in 10.0 mi Calm Calm - N/A   Clear
7:55 AM 74.7 °F - 68.2 °F 80% 29.78 in 10.0 mi Calm Calm - N/A   Clear
8:15 AM 76.5 °F - 68.2 °F 75% 29.79 in 10.0 mi Calm Calm - N/A   Clear
8:35 AM 78.4 °F - 68.5 °F 72% 29.79 in 10.0 mi Calm Calm - N/A   Clear
8:55 AM 80.4 °F 83.2 °F 68.5 °F 67% 29.79 in 10.0 mi Calm Calm - N/A   Clear
9:15 AM 82.0 °F 85.5 °F 69.1 °F 65% 29.78 in 10.0 mi Calm Calm - N/A   Clear
9:35 AM 83.3 °F 87.1 °F 69.4 °F 63% 29.78 in 10.0 mi Calm Calm - N/A   Clear
9:55 AM 84.6 °F 89.4 °F 70.5 °F 63% 29.78 in 10.0 mi Calm Calm - N/A   Clear
10:15 AM 86.4 °F 90.4 °F 69.1 °F 56% 29.79 in 10.0 mi Calm Calm - N/A   Clear
10:35 AM 87.6 °F 90.1 °F 66.6 °F 49% 29.79 in 10.0 mi West 3.5 mph - N/A   Clear
10:55 AM 88.5 °F 90.5 °F 65.1 °F 46% 29.79 in 10.0 mi WNW 5.8 mph - N/A   Clear
11:15 AM 88.7 °F 89.4 °F 63.1 °F 42% 29.79 in 10.0 mi NW 4.6 mph - N/A   Clear
11:35 AM 89.1 °F 90.0 °F 63.5 °F 42% 29.78 in 10.0 mi West 4.6 mph - N/A   Clear
11:55 AM 89.6 °F 90.4 °F 63.1 °F 41% 29.78 in 10.0 mi West 5.8 mph - N/A   Clear
12:15 PM 90.5 °F 90.7 °F 61.7 °F 38% 29.77 in 10.0 mi West 4.6 mph - N/A   Clear
12:35 PM 89.4 °F 90.8 °F 64.4 °F 43% 29.77 in 10.0 mi West 5.8 mph - N/A   Scattered Clouds
12:55 PM 90.3 °F 91.2 °F 63.0 °F 40% 29.76 in 10.0 mi SW 5.8 mph - N/A   Scattered Clouds
1:15 PM 90.1 °F 90.9 °F 63.1 °F 40% 29.76 in 10.0 mi West 6.9 mph - N/A   Scattered Clouds
1:35 PM 91.6 °F 91.6 °F 61.2 °F 36% 29.75 in 10.0 mi West 6.9 mph - N/A   Scattered Clouds
1:55 PM 90.9 °F 91.3 °F 62.1 °F 38% 29.74 in 10.0 mi WNW 6.9 mph - N/A   Scattered Clouds
2:15 PM 92.1 °F 92.4 °F 61.3 °F 36% 29.75 in 10.0 mi West 5.8 mph - N/A   Scattered Clouds
2:35 PM 91.6 °F 91.6 °F 61.0 °F 36% 29.74 in 10.0 mi North - - N/A   Mostly Cloudy
2:55 PM 87.8 °F 88.8 °F 63.5 °F 44% 29.75 in 10.0 mi West 5.8 mph - N/A   Mostly Cloudy
3:15 PM 88.7 °F 89.8 °F 63.7 °F 43% 29.75 in 10.0 mi North - - N/A   Mostly Cloudy
3:35 PM 86.4 °F 88.1 °F 65.3 °F 49% 29.75 in 10.0 mi WNW 5.8 mph - N/A   Mostly Cloudy
3:55 PM 88.5 °F 90.1 °F 64.6 °F 45% 29.75 in 10.0 mi West 3.5 mph - N/A   Mostly Cloudy
4:15 PM 90.1 °F 90.2 °F 61.7 °F 38% 29.74 in 10.0 mi NW 10.4 mph - N/A   Mostly Cloudy
4:35 PM 90.9 °F 90.3 °F 60.1 °F 35% 29.74 in 10.0 mi NW 5.8 mph - N/A   Scattered Clouds
4:55 PM 91.2 °F 91.8 °F 62.2 °F 38% 29.74 in 10.0 mi NW 6.9 mph - N/A   Mostly Cloudy
5:15 PM 90.3 °F 89.6 °F 59.4 °F 35% 29.75 in 10.0 mi NNW 9.2 mph 16.1 mph N/A   Overcast
5:35 PM 87.4 °F 88.5 °F 63.5 °F 45% 29.75 in 10.0 mi NNE 10.4 mph - N/A   Overcast
5:55 PM 87.4 °F 90.5 °F 67.1 °F 51% 29.75 in 10.0 mi NNE 4.6 mph - N/A   Overcast
6:15 PM 87.8 °F 90.0 °F 66.0 °F 48% 29.75 in 10.0 mi NNE 8.1 mph - N/A   Overcast
6:35 PM 87.1 °F 89.5 °F 66.4 °F 50% 29.76 in 10.0 mi North 5.8 mph - N/A   Scattered Clouds
6:55 PM 86.4 °F 88.7 °F 66.0 °F 51% 29.76 in 10.0 mi North 5.8 mph - N/A   Clear
7:15 PM 85.3 °F 87.9 °F 66.7 °F 54% 29.77 in 10.0 mi North - - N/A   Clear
7:35 PM 84.0 °F 87.0 °F 67.8 °F 58% 29.77 in 10.0 mi North - - N/A   Clear
7:55 PM 82.4 °F 86.3 °F 69.8 °F 66% 29.78 in 10.0 mi Calm Calm - N/A   Clear
8:15 PM 78.8 °F - 72.0 °F 79% 29.78 in 10.0 mi Calm Calm - N/A   Clear
8:35 PM 77.0 °F - 71.4 °F 83% 29.79 in 10.0 mi Calm Calm - N/A   Clear
8:55 PM 76.1 °F - 70.7 °F 83% 29.79 in 10.0 mi North 3.5 mph - N/A   Clear
9:15 PM 75.6 °F - 70.7 °F 85% 29.80 in 10.0 mi Calm Calm - N/A   Clear
9:35 PM 75.7 °F - 70.2 °F 83% 29.81 in 10.0 mi Calm Calm - N/A   Clear
9:55 PM 75.6 °F - 69.8 °F 82% 29.82 in 10.0 mi Calm Calm - N/A   Clear
10:15 PM 75.0 °F - 68.9 °F 81% 29.82 in 10.0 mi Calm Calm - N/A   Clear
10:35 PM 74.7 °F - 68.7 °F 82% 29.82 in 10.0 mi Calm Calm - N/A   Clear
10:55 PM 74.3 °F - 68.0 °F 81% 29.83 in 10.0 mi North - - N/A   Clear
11:15 PM 72.5 °F - 66.7 °F 82% 29.82 in 10.0 mi NNW 3.5 mph - N/A   Clear
11:35 PM 72.5 °F - 65.7 °F 79% 29.82 in 10.0 mi North - - N/A   Clear
11:55 PM 72.1 °F - 66.2 °F 82% 29.83 in 10.0 mi Calm Calm - N/A   Clear